Biloxi, MS

12:04 PM CDT on October 01, 2016 (GMT -0500)
Keesler Air Force Base

Weather History for KBIX - March, 2014

Change the Weather History Date:

Tuesday, March 4, 2014

  Actual Average Record
Temperature  
Mean Temperature 36 °F -  
Max Temperature 39 °F 65 °F 78 °F (1953)
Min Temperature 32 °F 49 °F 26 °F (2002)
Degree Days  
Heating Degree Days 30    
Moisture  
Dew Point 34 °F    
Average Humidity 91    
Maximum Humidity 100    
Minimum Humidity 75    
Precipitation  
Precipitation 0.12 in - - ()
Sea Level Pressure  
Sea Level Pressure 30.13 in    
Wind  
Wind Speed 9 mph (NNE)    
Max Wind Speed 16 mph    
Max Gust Speed -    
Visibility 9 miles    
Events Rain    
Averages and records for this station are not official NWS values.
T = Trace of Precipitation, MM = Missing Value Source: NWS Daily Summary

Daily Weather History Graph

Daily Weather History Graph

Search for Another Location

Airport or City:

Trip Planner

Search our weather history database for the weather conditions in past years. The results will help you decide how hot, cold, wet, or windy it might be!

Date:

Astronomy

Mar. 04, 2014 Rise Set
Actual Time 6:18 AM CST 5:56 PM CST
Civil Twilight 5:54 AM CST 6:20 PM CST
Nautical Twilight 5:26 AM CST 6:48 PM CST
Astronomical Twilight 4:58 AM CST 7:16 PM CST
Moon 8:21 AM CST (3/4) 9:44 PM CST (3/4)
Length of Visible Light 12h 26m
Length of Day
11h 38m
Waxing Crescent, 15% of the Moon is Illuminated
Mar 4
Waxing Crescent
Mar 8
First Quarter
Mar 16
Full
Mar 23
Last Quarter
Mar 30
New

Hourly Weather History & Observations

Time (CST) Temp. Windchill Dew Point Humidity Pressure Visibility Wind Dir Wind Speed Gust Speed Precip Events Conditions
12:58 AM 33.3 °F 24.6 °F 27.5 °F 79% 30.16 in 10.0 mi NNE 11.5 mph - N/A   Overcast
1:58 AM 33.3 °F 24.6 °F 27.5 °F 79% 30.17 in 10.0 mi North 11.5 mph - N/A   Overcast
2:58 AM 33.1 °F 22.6 °F 27.5 °F 80% 30.17 in 10.0 mi NNE 16.1 mph - N/A   Overcast
3:58 AM 32.4 °F 23.0 °F 27.0 °F 80% 30.17 in 10.0 mi NNE 12.7 mph - N/A   Overcast
4:33 AM 32.0 °F 23.0 °F 26.6 °F 80% 30.15 in 10.0 mi North 11.5 mph - N/A   Overcast
4:58 AM 32.2 °F 25.0 °F 26.8 °F 80% 30.17 in 10.0 mi NNE 8.1 mph - N/A   Overcast
5:58 AM 32.2 °F 25.0 °F 27.1 °F 82% 30.18 in 10.0 mi NNE 8.1 mph - N/A   Overcast
6:58 AM 32.4 °F 25.3 °F 27.5 °F 82% 30.17 in 10.0 mi NNE 8.1 mph - N/A   Overcast
7:58 AM 32.9 °F 27.5 °F 27.5 °F 81% 30.20 in 10.0 mi NE 5.8 mph - N/A   Overcast
8:58 AM 34.2 °F 29.0 °F 28.0 °F 78% 30.23 in 10.0 mi North 5.8 mph - N/A   Overcast
9:13 AM 35.6 °F 29.9 °F 28.4 °F 75% 30.23 in 10.0 mi North 6.9 mph - N/A   Overcast
9:58 AM 35.2 °F 27.6 °F 28.8 °F 77% 30.23 in 10.0 mi North 10.4 mph - N/A   Overcast
10:08 AM 35.6 °F 30.7 °F 28.4 °F 75% 30.22 in 10.0 mi North 5.8 mph - N/A   Overcast
10:22 AM 35.6 °F 29.2 °F 28.4 °F 75% 30.21 in 9.0 mi NNE 8.1 mph - N/A Rain Light Rain
10:58 AM 35.6 °F 29.2 °F 30.2 °F 81% 30.19 in 5.0 mi NNE 8.1 mph - N/A Rain Light Rain
11:32 AM 35.6 °F 29.2 °F 32.0 °F 87% 30.19 in 6.0 mi NNE 8.1 mph - N/A Rain Light Rain
11:59 AM 35.6 °F 30.7 °F 32.0 °F 87% 30.19 in 4.0 mi North 5.8 mph - N/A Rain Light Rain
12:59 PM 35.6 °F 29.2 °F 32.0 °F 87% 30.17 in 6.0 mi NNE 8.1 mph - N/A Rain Light Rain
1:38 PM 35.6 °F 27.1 °F 32.0 °F 87% 30.16 in 3.0 mi NNE 12.7 mph - N/A Rain Light Rain
1:59 PM 35.6 °F 29.2 °F 33.8 °F 93% 30.16 in 6.0 mi NNE 8.1 mph - N/A Rain Light Rain
2:21 PM 35.6 °F 27.1 °F 33.8 °F 93% 30.10 in 7.0 mi NE 12.7 mph - N/A Rain Light Rain
2:58 PM 36.0 °F - 34.3 °F 94% 30.14 in 10.0 mi East 2.3 mph - 0.05 in Rain Light Rain
3:00 PM 35.6 °F 31.7 °F 33.8 °F 93% 30.13 in 10.0 mi ENE 4.6 mph - N/A   Overcast
3:58 PM 36.7 °F 32.9 °F 35.1 °F 94% 30.12 in 10.0 mi NE 4.6 mph - 0.00 in   Overcast
4:12 PM 37.4 °F 30.8 °F 35.6 °F 93% 30.09 in 10.0 mi NNE 9.2 mph - N/A Rain Light Rain Showers
4:27 PM 37.4 °F 30.3 °F 35.6 °F 93% 30.09 in 9.0 mi NNE 10.4 mph - N/A Rain Light Rain
4:45 PM 37.4 °F 30.8 °F 35.6 °F 93% 30.09 in 7.0 mi NE 9.2 mph - N/A Rain Light Rain
4:58 PM 36.7 °F 31.2 °F 35.6 °F 96% 30.11 in 9.0 mi NNE 6.9 mph - 0.02 in Rain Light Rain
5:33 PM 37.4 °F 30.3 °F 35.6 °F 93% 30.09 in 10.0 mi NNE 10.4 mph - N/A   Overcast
5:43 PM 37.4 °F 30.8 °F 35.6 °F 93% 30.09 in 9.0 mi NNE 9.2 mph - N/A   Overcast
5:58 PM 36.9 °F 29.6 °F 35.8 °F 96% 30.10 in 10.0 mi NNE 10.4 mph - 0.02 in Rain Light Rain
6:04 PM 37.4 °F 30.8 °F 35.6 °F 93% 30.10 in 10.0 mi NNE 9.2 mph - N/A Rain Light Rain
6:07 PM 37.4 °F 31.4 °F 35.6 °F 93% 30.10 in 10.0 mi NNE 8.1 mph - N/A   Overcast
6:17 PM 37.4 °F 32.8 °F 35.6 °F 93% 30.11 in 10.0 mi NE 5.8 mph - N/A   Overcast
6:33 PM 37.4 °F 31.4 °F 35.6 °F 93% 30.13 in 10.0 mi North 8.1 mph - N/A   Overcast
6:43 PM 37.4 °F 31.4 °F 35.6 °F 93% 30.12 in 10.0 mi NNE 8.1 mph - N/A   Overcast
6:48 PM 37.4 °F 30.8 °F 35.6 °F 93% 30.12 in 10.0 mi North 9.2 mph - N/A Rain Light Rain
6:53 PM 37.4 °F 31.4 °F 35.6 °F 93% 30.12 in 10.0 mi North 8.1 mph - N/A Rain Light Rain
6:58 PM 36.9 °F 30.7 °F 36.0 °F 97% 30.14 in 10.0 mi North 8.1 mph - 0.00 in   Overcast
7:08 PM 37.4 °F 32.1 °F 35.6 °F 93% 30.12 in 9.0 mi NNE 6.9 mph - N/A   Overcast
7:13 PM 37.4 °F 31.4 °F 35.6 °F 93% 30.12 in 10.0 mi NNE 8.1 mph - N/A   Overcast
7:18 PM 37.4 °F 32.1 °F 35.6 °F 93% 30.12 in 10.0 mi NE 6.9 mph - N/A   Overcast
7:39 PM 37.4 °F 30.8 °F 35.6 °F 93% 30.11 in 10.0 mi NE 9.2 mph - N/A   Overcast
7:40 PM 37.4 °F 31.4 °F 35.6 °F 93% 30.12 in 10.0 mi NE 8.1 mph - N/A   Overcast
7:50 PM 37.4 °F 31.4 °F 35.6 °F 93% 30.13 in 10.0 mi NNE 8.1 mph - N/A   Overcast
7:58 PM 37.0 °F 30.4 °F 36.3 °F 97% 30.13 in 10.0 mi NNE 9.2 mph - 0.02 in   Overcast
8:03 PM 37.4 °F 31.4 °F 37.4 °F 100% 30.12 in 10.0 mi NNE 8.1 mph - N/A   Overcast
8:08 PM 37.4 °F 31.4 °F 35.6 °F 93% 30.13 in 10.0 mi NNE 8.1 mph - N/A   Overcast
8:18 PM 37.4 °F 31.4 °F 35.6 °F 93% 30.11 in 9.0 mi NE 8.1 mph - N/A   Overcast
8:23 PM 37.4 °F 31.4 °F 35.6 °F 93% 30.11 in 9.0 mi NE 8.1 mph - N/A   Mostly Cloudy
8:28 PM 37.4 °F 30.3 °F 35.6 °F 93% 30.11 in 10.0 mi ENE 10.4 mph - N/A   Overcast
8:37 PM 37.4 °F 31.4 °F 37.4 °F 100% 30.12 in 10.0 mi NE 8.1 mph - N/A   Mostly Cloudy
8:58 PM 37.4 °F 32.1 °F 36.7 °F 97% 30.14 in 10.0 mi NNE 6.9 mph - 0.01 in   Overcast
9:33 PM 37.4 °F 31.4 °F 37.4 °F 100% 30.10 in 10.0 mi NNE 8.1 mph - N/A   Overcast
9:58 PM 37.8 °F 30.7 °F 36.9 °F 97% 30.11 in 10.0 mi NE 10.4 mph - N/A   Overcast
10:08 PM 37.4 °F 30.8 °F 37.4 °F 100% 30.11 in 10.0 mi NNE 9.2 mph - N/A   Overcast
10:28 PM 37.4 °F 31.4 °F 37.4 °F 100% 30.13 in 10.0 mi NNE 8.1 mph - N/A Rain Light Rain
10:38 PM 37.4 °F 32.8 °F 37.4 °F 100% 30.13 in 10.0 mi NNE 5.8 mph - N/A   Overcast
10:42 PM 37.4 °F 32.1 °F 37.4 °F 100% 30.12 in 10.0 mi NNE 6.9 mph - N/A   Overcast
10:58 PM 38.1 °F 32.3 °F 37.4 °F 97% 30.11 in 9.0 mi ENE 8.1 mph - 0.00 in   Overcast
11:03 PM 39.2 °F 33.0 °F 37.4 °F 93% 30.09 in 6.0 mi ENE 9.2 mph - N/A   Overcast
11:13 PM 37.4 °F 31.4 °F 37.4 °F 100% 30.08 in 10.0 mi ENE 8.1 mph - N/A   Overcast
11:18 PM 39.2 °F 32.5 °F 37.4 °F 93% 30.08 in 10.0 mi East 10.4 mph - N/A   Mostly Cloudy
11:23 PM 39.2 °F 35.0 °F 37.4 °F 93% 30.09 in 10.0 mi Variable 5.8 mph - N/A   Mostly Cloudy
11:43 PM 39.2 °F 35.0 °F 37.4 °F 93% 30.12 in 10.0 mi NNE 5.8 mph - N/A   Overcast
11:53 PM 39.2 °F 33.0 °F 37.4 °F 93% 30.08 in 10.0 mi NE 9.2 mph - N/A   Overcast
11:58 PM 38.8 °F 33.2 °F 37.9 °F 97% 30.09 in 10.0 mi NNE 8.1 mph - N/A   Overcast